Terminal Aerodrome Forecast
Issued by NWS

Current Version | Previous Version | Graphics & Text | Print | Product List | Glossary On
Versions: 1 2 3 4 5 6 7 8 9 10 11 12 13 14 15 16 17 18 19 20 21 22 23 24 25 26 27 28 29 30 31 32 33 34 35 36
000
FTUS41 KRNK 291134 CCA
TAFLWB
TAF COR
KLWB 291134Z 2912/3012 02005KT P6SM SCT080
      TEMPO 2912/2913 4SM BR
     FM291400 VRB03KT P6SM SCT025 BKN100
     FM291700 17005KT 5SM SHRA VCTS BKN050CB
     FM300000 VRB03KT P6SM VCSH SCT035 BKN080
     FM300700 00000KT 4SM BR BKN050
     FM301000 00000KT 1/2SM FG BKN001=

USA.gov is the U.S. government's official web portal to all federal, state and local government web resources and services.